Location: Alexandria
(38.8050°N, 77.0470°W)
Time: 17:34:59
(UTC-05:00)

Tiangong 2 - Pass Details

Date: 12 February 2018
Orbit: 384 x 388 km, 42.8° (Epoch: 22 February)

Event Time Altitude Azimuth Distance (km) Brightness Sun altitude
Rises 18:08:12 0° 235° (SW) 2,255 6.5 -5.7°
Reaches altitude 10° 18:10:18 10° 230° (SW) 1,403 5.1 -6.1°
Maximum altitude 18:13:22 50° 154° (SSE) 493 1.5 -6.7°
Drops below altitude 10° 18:16:28 10° 77° (ENE) 1,406 3.2 -7.2°
Enters shadow 18:16:32 10° 76° (ENE) 1,433 3.2 -7.3°
